User: anonymous   Login
Location: Stigler
(35.2540°N, 95.1230°W)
Time: 23:11:44
(UTC-06:00)
Language:

Cosmos 1805 - Orbit

View from above orbital plane
View from above orbital plane
View from above satellite
View from above satellite

Ground track
Ground track

The orbit data is extracted from the following two-line orbital elements,

1 17191U 86097A   14356.15525035  .00007158  00000-0  45421-3 0   647
2 17191 082.4952 202.1470 0007634 339.4739 020.6182 15.08728994526550
Epoch (UTC): 22 December 2014 03:43:33
Eccentricity: 0.0007634
inclination: 82.4952°
perigee height: 535 km
apogee height: 545 km
right ascension of ascending node: 202.1470°
argument of perigee: 339.4739°
revolutions per day: 15.08728994
mean anomaly at epoch: 20.6182°
orbit number at epoch: 52655

The dashed part of the orbit path shows where the satellite is in the earth's shadow,  

DLR